• In Netherlands
  • List of Countries
  • For 7 days
  • Water Temperature
  • Satellite Maps
  • Weather Map
  • Weather Widgets
  • user-avatar
    Login

    Hourly Weather Canberra

    Today, 26 July, Wednesday

    Time Temperature Precipitation Wind Pressure Humidity
    00:00 +8°C° 0.4 mm 4 mps 708 mmHg 83%
    01:00 +7°C° 0.4 mm 4 mps 708 mmHg 88%
    02:00 +7°C° 0 mm 4 mps 708 mmHg 89%
    03:00 +7°C° 0 mm 4 mps 708 mmHg 90%
    04:00 +7°C° 0 mm 4 mps 707 mmHg 90%
    05:00 +7°C° 0 mm 4 mps 708 mmHg 89%
    06:00 +7°C° 0 mm 5 mps 708 mmHg 88%
    07:00 +7°C° 0 mm 5 mps 708 mmHg 87%
    08:00 +7°C° 0 mm 6 mps 708 mmHg 80%
    09:00 +8°C° 0 mm 6 mps 709 mmHg 74%
    10:00 +9°C° 0 mm 7 mps 709 mmHg 67%
    11:00 +9°C° 0 mm 7 mps 709 mmHg 65%
    12:00 +9°C° 0 mm 7 mps 709 mmHg 63%
    13:00 +10°C° 0 mm 7 mps 709 mmHg 60%
    14:00 +9°C° 0 mm 7 mps 709 mmHg 61%
    15:00 +9°C° 0 mm 6 mps 709 mmHg 62%
    16:00 +11°C° 0 mm 4 mps 709 mmHg 57%
    17:00 +8°C° 0 mm 4 mps 710 mmHg 65%
    18:00 +8°C° 0 mm 3 mps 711 mmHg 73%
    19:00 +7°C° 0 mm 3 mps 711 mmHg 80%
    20:00 +5°C° 0 mm 3 mps 711 mmHg 84%
    21:00 +5°C° 0 mm 2 mps 712 mmHg 88%
    22:00 +5°C° 0 mm 1 mps 712 mmHg 93%
    23:00 +4°C° 0 mm 1 mps 712 mmHg 94%

    Tomorrow, 27 July, Thursday

    Time Temperature Precipitation Wind Pressure Humidity
    00:00 +4°C° 0 mm 1 mps 713 mmHg 94%
    01:00 +3°C° 0 mm 1 mps 713 mmHg 95%
    02:00 +3°C° 0 mm 1 mps 713 mmHg 95%
    03:00 +3°C° 0 mm 1 mps 713 mmHg 95%
    04:00 +2°C° 0 mm 1 mps 713 mmHg 95%
    05:00 +2°C° 0 mm 1 mps 714 mmHg 94%
    06:00 +1°C° 0 mm 1 mps 714 mmHg 93%
    07:00 0°C° 0 mm 0 mps 714 mmHg 92%
    08:00 +4°C° 0 mm 1 mps 714 mmHg 81%
    09:00 +7°C° 0 mm 1 mps 714 mmHg 70%
    10:00 +9°C° 0 mm 1 mps 715 mmHg 59%
    11:00 +10°C° 0 mm 2 mps 714 mmHg 53%
    12:00 +12°C° 0 mm 2 mps 714 mmHg 47%
    13:00 +13°C° 0 mm 3 mps 713 mmHg 41%
    14:00 +12°C° 0 mm 3 mps 713 mmHg 44%
    15:00 +12°C° 0 mm 3 mps 712 mmHg 47%
    16:00 +11°C° 0 mm 3 mps 712 mmHg 51%
    17:00 +10°C° 0 mm 2 mps 712 mmHg 60%
    18:00 +8°C° 0 mm 2 mps 712 mmHg 70%
    19:00 +6°C° 0 mm 2 mps 712 mmHg 79%
    20:00 +6°C° 0 mm 2 mps 712 mmHg 79%
    21:00 +5°C° 0 mm 2 mps 712 mmHg 80%
    22:00 +5°C° 0 mm 2 mps 711 mmHg 80%
    23:00 +4°C° 0 mm 3 mps 711 mmHg 78%

    Day after tomorrow, 28 July, Friday

    Time Temperature Precipitation Wind Pressure Humidity
    00:00 +4°C° 0 mm 3 mps 710 mmHg 76%
    01:00 +4°C° 0 mm 3 mps 709 mmHg 74%
    02:00 +5°C° 0 mm 3 mps 709 mmHg 72%
    03:00 +6°C° 0 mm 4 mps 708 mmHg 71%
    04:00 +6°C° 0 mm 5 mps 708 mmHg 69%
    05:00 +6°C° 0.2 mm 4 mps 708 mmHg 74%
    06:00 +6°C° 0.2 mm 4 mps 709 mmHg 79%
    07:00 +6°C° 0.2 mm 4 mps 709 mmHg 84%
    08:00 +7°C° 0 mm 4 mps 709 mmHg 76%
    09:00 +8°C° 0 mm 5 mps 710 mmHg 68%
    10:00 +9°C° 0 mm 5 mps 710 mmHg 61%
    11:00 +10°C° 0 mm 5 mps 710 mmHg 52%
    12:00 +12°C° 0 mm 5 mps 710 mmHg 44%
    13:00 +13°C° 0 mm 6 mps 710 mmHg 36%
    14:00 +12°C° 0 mm 5 mps 710 mmHg 39%
    15:00 +12°C° 0 mm 5 mps 710 mmHg 43%
    16:00 +11°C° 0 mm 4 mps 710 mmHg 46%
    17:00 +8°C° 0 mm 4 mps 711 mmHg 57%
    18:00 +7°C° 0 mm 3 mps 711 mmHg 69%
    19:00 +5°C° 0 mm 2 mps 711 mmHg 80%
    20:00 +4°C° 0 mm 2 mps 712 mmHg 84%
    21:00 +3°C° 0 mm 2 mps 712 mmHg 87%
    22:00 +4°C° 0 mm 1 mps 713 mmHg 91%
    23:00 +3°C° 0 mm 1 mps 712 mmHg 91%

    29 July, Saturday

    Time Temperature Precipitation Wind Pressure Humidity
    00:00 +3°C° 0 mm 1 mps 712 mmHg 91%
    01:00 +3°C° 0 mm 1 mps 712 mmHg 91%
    02:00 +3°C° 0 mm 1 mps 712 mmHg 90%
    03:00 +2°C° 0 mm 1 mps 712 mmHg 90%
    04:00 +2°C° 0 mm 1 mps 711 mmHg 89%
    05:00 +2°C° 0 mm 1 mps 712 mmHg 87%
    06:00 +2°C° 0 mm 1 mps 712 mmHg 85%
    07:00 +2°C° 0 mm 1 mps 712 mmHg 84%
    08:00 +4°C° 0 mm 2 mps 712 mmHg 72%
    09:00 +7°C° 0 mm 2 mps 712 mmHg 60%
    10:00 +10°C° 0 mm 2 mps 712 mmHg 48%
    11:00 +12°C° 0 mm 3 mps 711 mmHg 44%
    12:00 +14°C° 0 mm 3 mps 710 mmHg 41%
    13:00 +15°C° 0 mm 4 mps 709 mmHg 38%
    14:00 +15°C° 0 mm 4 mps 709 mmHg 42%
    15:00 +16°C° 0 mm 3 mps 708 mmHg 45%
    16:00 +16°C° 0 mm 3 mps 708 mmHg 49%
    17:00 +12°C° 0 mm 3 mps 708 mmHg 59%
    18:00 +10°C° 0 mm 2 mps 708 mmHg 68%
    19:00 +8°C° 0 mm 2 mps 707 mmHg 77%
    20:00 +9°C° 0 mm 3 mps 707 mmHg 72%
    21:00 +8°C° 0 mm 4 mps 707 mmHg 68%
    22:00 +10°C° 0 mm 4 mps 707 mmHg 63%
    23:00 +10°C° 0 mm 5 mps 707 mmHg 57%

    30 July, Sunday

    Time Temperature Precipitation Wind Pressure Humidity
    00:00 +11°C° 0 mm 6 mps 706 mmHg 51%
    01:00 +12°C° 0 mm 7 mps 706 mmHg 45%
    02:00 +11°C° 0 mm 6 mps 706 mmHg 48%
    03:00 +12°C° 0 mm 5 mps 706 mmHg 50%
    04:00 +10°C° 0 mm 5 mps 706 mmHg 53%
    05:00 +11°C° 0 mm 4 mps 706 mmHg 55%
    06:00 +10°C° 0 mm 4 mps 706 mmHg 57%
    07:00 +10°C° 0 mm 4 mps 707 mmHg 58%
    08:00 +11°C° 0 mm 4 mps 707 mmHg 57%
    09:00 +12°C° 0 mm 4 mps 708 mmHg 56%
    10:00 +13°C° 0 mm 5 mps 708 mmHg 55%
    11:00 +13°C° 0 mm 5 mps 708 mmHg 57%
    12:00 +14°C° 0 mm 5 mps 707 mmHg 59%
    13:00 +14°C° 0 mm 5 mps 707 mmHg 62%
    14:00 +13°C° 0.2 mm 4 mps 707 mmHg 67%
    15:00 +12°C° 0.2 mm 4 mps 707 mmHg 72%
    16:00 +11°C° 0.2 mm 3 mps 707 mmHg 77%
    17:00 +10°C° 0.3 mm 3 mps 707 mmHg 81%
    18:00 +9°C° 0.3 mm 2 mps 707 mmHg 86%
    19:00 +8°C° 0.3 mm 2 mps 708 mmHg 90%
    20:00 +8°C° 0.2 mm 2 mps 708 mmHg 89%
    21:00 +8°C° 0.2 mm 2 mps 708 mmHg 89%
    22:00 +9°C° 0.2 mm 1 mps 709 mmHg 89%
    23:00 +8°C° 0 mm 1 mps 709 mmHg 89%

    31 July, Monday

    Time Temperature Precipitation Wind Pressure Humidity
    00:00 +7°C° 0 mm 1 mps 708 mmHg 90%
    01:00 +7°C° 0 mm 1 mps 708 mmHg 91%
    02:00 +6°C° 0 mm 1 mps 708 mmHg 91%
    03:00 +6°C° 0 mm 1 mps 708 mmHg 92%
    04:00 +5°C° 0 mm 1 mps 708 mmHg 92%
    05:00 +5°C° 0 mm 1 mps 708 mmHg 92%
    06:00 +5°C° 0 mm 1 mps 708 mmHg 92%
    07:00 +5°C° 0 mm 1 mps 708 mmHg 92%
    08:00 +6°C° 0 mm 1 mps 709 mmHg 85%
    09:00 +7°C° 0 mm 0 mps 709 mmHg 78%
    10:00 +9°C° 0 mm 0 mps 709 mmHg 71%
    11:00 +10°C° 0 mm 0 mps 708 mmHg 68%
    12:00 +10°C° 0 mm 0 mps 708 mmHg 65%
    13:00 +11°C° 0 mm 0 mps 707 mmHg 63%
    14:00 +11°C° 0 mm 0 mps 707 mmHg 63%
    15:00 +11°C° 0 mm 1 mps 707 mmHg 64%
    16:00 +11°C° 0 mm 1 mps 707 mmHg 65%
    17:00 +10°C° 0 mm 1 mps 707 mmHg 72%
    18:00 +8°C° 0 mm 1 mps 707 mmHg 80%
    19:00 +6°C° 0 mm 1 mps 707 mmHg 87%
    20:00 +6°C° 0 mm 1 mps 707 mmHg 87%
    21:00 +5°C° 0 mm 2 mps 708 mmHg 88%
    22:00 +5°C° 0 mm 2 mps 708 mmHg 88%
    23:00 +4°C° 0 mm 2 mps 708 mmHg 89%
    Show more